Station Historical Data
Daily Summary for May 16, 2011 Units:  English    Metric   Both
« Previous Day
Next Day »
Daily Weekly Monthly Yearly Custom
  High: Low: Average:
Temperature: 55.3 °F 48.6 °F 51.8 °F
Dew Point: 52.0 °F 46.5 °F 49.3 °F
Humidity: 98% 82% 91%
Wind Speed: 16.0mph 1.0mph 4.9mph
Wind Gust: 19.0mph - -
Wind- - WNW
Pressure: 29.88 in 29.73 in -
Precipitation: 0.03 in    
Historical Graphs
 
 
Tabular Data for May 16, 2011
Time Temperature Dew Point Pressure Wind Wind Speed Wind Gust Humidity Rainfall Rate (Hourly) Conditions
00:02 52.4 °F 51.3 °F 29.79 in West 4.0 mph 8.0 mph 96% 0.00 in
00:07 52.3 °F 51.2 °F 29.78 in West 6.0 mph 7.0 mph 96% 0.00 in
00:12 52.3 °F 51.2 °F 29.78 in West 6.0 mph 9.0 mph 96% 0.00 in
00:21 52.3 °F 50.9 °F 29.77 in West 6.0 mph 9.0 mph 95% 0.00 in
00:26 52.2 °F 51.1 °F 29.77 in WNW 6.0 mph 6.0 mph 96% 0.00 in
00:31 52.2 °F 51.1 °F 29.77 in West 2.0 mph 4.0 mph 96% 0.00 in
00:32 52.2 °F 51.1 °F 29.77 in WSW 3.0 mph 4.0 mph 96% 0.00 in
00:35 52.2 °F 51.1 °F 29.77 in WSW 3.0 mph 4.0 mph 96% 0.00 in
00:36 52.1 °F 51.0 °F 29.77 in West 1.0 mph 4.0 mph 96% 0.00 in
00:41 52.1 °F 51.0 °F 29.77 in WNW 3.0 mph 6.0 mph 96% 0.00 in
00:46 52.1 °F 51.0 °F 29.77 in West 3.0 mph 9.0 mph 96% 0.00 in
00:48 52.1 °F 51.0 °F 29.77 in West 9.0 mph 10.0 mph 96% 0.00 in
00:52 52.1 °F 51.0 °F 29.77 in WNW 4.0 mph 8.0 mph 96% 0.00 in
00:53 52.1 °F 51.0 °F 29.77 in WNW 6.0 mph 6.0 mph 96% 0.00 in
00:58 52.1 °F 51.0 °F 29.77 in WNW 7.0 mph 7.0 mph 96% 0.00 in
01:03 52.1 °F 51.0 °F 29.77 in West 4.0 mph 7.0 mph 96% 0.00 in
01:08 52.1 °F 50.7 °F 29.77 in WNW 4.0 mph 10.0 mph 95% 0.00 in
01:13 52.0 °F 50.6 °F 29.77 in WNW 4.0 mph 8.0 mph 95% 0.00 in
01:18 52.0 °F 50.9 °F 29.77 in WNW 5.0 mph 7.0 mph 96% 0.00 in
01:23 51.9 °F 50.8 °F 29.77 in West 7.0 mph 8.0 mph 96% 0.00 in
01:28 51.9 °F 50.8 °F 29.76 in West 3.0 mph 7.0 mph 96% 0.00 in
01:29 51.9 °F 50.8 °F 29.76 in NW 3.0 mph 6.0 mph 96% 0.00 in
01:34 51.7 °F 50.6 °F 29.76 in WNW 3.0 mph 5.0 mph 96% 0.00 in
01:37 51.6 °F 50.5 °F 29.76 in WNW 3.0 mph 5.0 mph 96% 0.00 in
01:39 51.6 °F 50.8 °F 29.76 in WNW 4.0 mph 5.0 mph 97% 0.00 in
01:44 51.6 °F 50.8 °F 29.76 in WNW 6.0 mph 8.0 mph 97% 0.00 in
01:49 51.5 °F 50.7 °F 29.76 in WNW 3.0 mph 6.0 mph 97% 0.00 in
01:54 51.4 °F 50.6 °F 29.76 in West 5.0 mph 6.0 mph 97% 0.00 in
01:55 51.5 °F 50.7 °F 29.75 in West 5.0 mph 6.0 mph 97% 0.00 in
01:58 51.4 °F 50.3 °F 29.75 in WNW 3.0 mph 7.0 mph 96% 0.00 in
02:00 51.4 °F 50.3 °F 29.75 in WNW 3.0 mph 6.0 mph 96% 0.00 in
02:05 51.4 °F 50.3 °F 29.75 in West 2.0 mph 8.0 mph 96% 0.00 in
02:10 51.3 °F 50.2 °F 29.75 in NW 8.0 mph 10.0 mph 96% 0.00 in
02:15 51.2 °F 50.1 °F 29.75 in NW 4.0 mph 9.0 mph 96% 0.00 in
02:20 51.1 °F 50.0 °F 29.75 in WNW 7.0 mph 9.0 mph 96% 0.00 in
02:25 51.0 °F 49.9 °F 29.75 in NNW 2.0 mph 7.0 mph 96% 0.00 in
02:29 50.9 °F 50.1 °F 29.74 in WNW 3.0 mph 7.0 mph 97% 0.00 in
02:30 50.9 °F 50.1 °F 29.75 in NW 3.0 mph 7.0 mph 97% 0.00 in
02:31 50.9 °F 50.1 °F 29.74 in West 2.0 mph 7.0 mph 97% 0.00 in
02:35 50.9 °F 50.1 °F 29.74 in West 5.0 mph 5.0 mph 97% 0.00 in
02:36 50.9 °F 50.1 °F 29.74 in NW 5.0 mph 5.0 mph 97% 0.00 in
02:40 50.9 °F 50.1 °F 29.74 in WNW 4.0 mph 5.0 mph 97% 0.00 in
02:45 50.9 °F 50.1 °F 29.74 in WNW 3.0 mph 6.0 mph 97% 0.00 in
02:46 50.9 °F 50.1 °F 29.74 in WNW 3.0 mph 6.0 mph 97% 0.00 in
02:51 50.8 °F 50.0 °F 29.74 in WNW 2.0 mph 5.0 mph 97% 0.00 in
02:52 50.8 °F 50.0 °F 29.74 in WNW 3.0 mph 5.0 mph 97% 0.00 in
02:56 50.8 °F 50.0 °F 29.74 in WNW 3.0 mph 6.0 mph 97% 0.00 in
02:57 50.8 °F 50.0 °F 29.74 in West 5.0 mph 5.0 mph 97% 0.00 in
03:01 50.8 °F 49.7 °F 29.74 in West 3.0 mph 7.0 mph 96% 0.00 in
03:06 50.8 °F 49.7 °F 29.74 in West 3.0 mph 7.0 mph 96% 0.00 in
03:11 50.7 °F 49.6 °F 29.74 in West 4.0 mph 8.0 mph 96% 0.00 in
03:16 50.7 °F 49.6 °F 29.74 in West 4.0 mph 8.0 mph 96% 0.00 in
03:21 50.7 °F 49.6 °F 29.74 in NW 4.0 mph 8.0 mph 96% 0.00 in
03:26 50.7 °F 49.6 °F 29.74 in NW 4.0 mph 8.0 mph 96% 0.00 in
03:27 50.7 °F 49.6 °F 29.74 in NW 3.0 mph 8.0 mph 96% 0.00 in
03:28 50.7 °F 49.6 °F 29.74 in NW 2.0 mph 8.0 mph 96% 0.00 in
03:32 50.6 °F 49.5 °F 29.73 in WNW 6.0 mph 7.0 mph 96% 0.00 in
03:33 50.6 °F 49.5 °F 29.73 in WNW 2.0 mph 7.0 mph 96% 0.00 in
03:36 50.5 °F 49.4 °F 29.74 in WNW 4.0 mph 5.0 mph 96% 0.00 in
03:41 50.4 °F 49.6 °F 29.74 in WNW 2.0 mph 6.0 mph 97% 0.00 in
03:46 50.3 °F 49.5 °F 29.73 in WNW 2.0 mph 6.0 mph 97% 0.00 in
03:51 50.3 °F 49.5 °F 29.73 in West 2.0 mph 5.0 mph 97% 0.00 in
03:56 50.3 °F 49.8 °F 29.73 in WNW 2.0 mph 3.0 mph 98% 0.00 in
04:01 50.3 °F 49.8 °F 29.73 in WNW 2.0 mph 3.0 mph 98% 0.00 in
04:06 50.3 °F 49.8 °F 29.73 in WNW 5.0 mph 7.0 mph 98% 0.00 in
04:07 50.3 °F 49.8 °F 29.73 in NW 4.0 mph 7.0 mph 98% 0.00 in
04:11 50.4 °F 49.9 °F 29.73 in West 5.0 mph 6.0 mph 98% 0.00 in
04:12 50.3 °F 49.8 °F 29.73 in WNW 4.0 mph 6.0 mph 98% 0.00 in
04:17 50.4 °F 49.6 °F 29.73 in West 2.0 mph 5.0 mph 97% 0.00 in
04:22 50.4 °F 49.9 °F 29.73 in WNW 2.0 mph 3.0 mph 98% 0.00 in
04:27 50.4 °F 49.9 °F 29.73 in WNW 2.0 mph 4.0 mph 98% 0.00 in
04:28 50.4 °F 49.9 °F 29.73 in WNW 4.0 mph 6.0 mph 98% 0.00 in
04:31 50.4 °F 49.9 °F 29.73 in West 6.0 mph 6.0 mph 98% 0.00 in
04:32 50.4 °F 49.9 °F 29.73 in West 4.0 mph 6.0 mph 98% 0.00 in
04:33 50.4 °F 49.9 °F 29.73 in West 3.0 mph 6.0 mph 98% 0.00 in
04:37 50.3 °F 49.8 °F 29.73 in NW 5.0 mph 5.0 mph 98% 0.00 in
04:42 50.3 °F 49.8 °F 29.73 in WNW 3.0 mph 6.0 mph 98% 0.00 in
04:47 50.2 °F 49.7 °F 29.73 in WNW 3.0 mph 5.0 mph 98% 0.00 in
04:52 50.3 °F 49.8 °F 29.73 in WNW 3.0 mph 5.0 mph 98% 0.00 in
04:53 50.3 °F 49.8 °F 29.73 in NW 4.0 mph 5.0 mph 98% 0.00 in
04:57 50.2 °F 49.7 °F 29.73 in NW 3.0 mph 6.0 mph 98% 0.00 in
04:58 50.2 °F 49.7 °F 29.73 in NW 4.0 mph 6.0 mph 98% 0.00 in
05:03 50.3 °F 49.8 °F 29.73 in West 3.0 mph 5.0 mph 98% 0.00 in
05:08 50.3 °F 49.8 °F 29.73 in WNW 4.0 mph 5.0 mph 98% 0.00 in
05:09 50.3 °F 49.8 °F 29.73 in WNW 4.0 mph 5.0 mph 98% 0.00 in
05:14 50.3 °F 49.8 °F 29.73 in WNW 2.0 mph 7.0 mph 98% 0.00 in
05:19 50.3 °F 49.8 °F 29.74 in West 3.0 mph 3.0 mph 98% 0.00 in
05:20 50.3 °F 49.8 °F 29.74 in West 4.0 mph 4.0 mph 98% 0.00 in
05:25 50.3 °F 49.8 °F 29.74 in NW 4.0 mph 5.0 mph 98% 0.00 in
05:26 50.3 °F 49.8 °F 29.74 in WNW 4.0 mph 5.0 mph 98% 0.00 in
05:31 50.3 °F 49.8 °F 29.74 in West 4.0 mph 6.0 mph 98% 0.00 in
05:32 50.3 °F 49.8 °F 29.74 in WNW 4.0 mph 6.0 mph 98% 0.00 in
05:35 50.3 °F 49.8 °F 29.74 in West 3.0 mph 7.0 mph 98% 0.00 in
05:36 50.3 °F 49.8 °F 29.74 in West 2.0 mph 5.0 mph 98% 0.00 in
05:41 50.3 °F 49.8 °F 29.74 in WNW 3.0 mph 6.0 mph 98% 0.00 in
05:46 50.3 °F 49.8 °F 29.74 in West 3.0 mph 5.0 mph 98% 0.00 in
05:51 50.3 °F 49.8 °F 29.74 in WNW 3.0 mph 8.0 mph 98% 0.00 in
05:52 50.3 °F 49.8 °F 29.74 in WNW 3.0 mph 8.0 mph 98% 0.00 in
05:57 50.2 °F 49.7 °F 29.74 in WNW 3.0 mph 6.0 mph 98% 0.00 in
05:58 50.2 °F 49.7 °F 29.74 in WNW 3.0 mph 6.0 mph 98% 0.00 in
06:02 50.2 °F 49.7 °F 29.74 in NW 3.0 mph 5.0 mph 98% 0.00 in
06:03 50.2 °F 49.7 °F 29.74 in WNW 6.0 mph 6.0 mph 98% 0.00 in
06:08 50.2 °F 49.7 °F 29.74 in WNW 5.0 mph 5.0 mph 98% 0.00 in
06:13 50.2 °F 49.7 °F 29.74 in West 5.0 mph 7.0 mph 98% 0.00 in
06:17 50.2 °F 49.4 °F 29.74 in WNW 3.0 mph 6.0 mph 97% 0.00 in
06:22 50.2 °F 49.4 °F 29.74 in WNW 8.0 mph 8.0 mph 97% 0.00 in
06:27 50.1 °F 49.3 °F 29.74 in NW 4.0 mph 9.0 mph 97% 0.00 in
06:29 50.1 °F 49.3 °F 29.74 in WNW 6.0 mph 10.0 mph 97% 0.00 in
06:32 50.1 °F 49.3 °F 29.74 in WNW 6.0 mph 8.0 mph 97% 0.00 in
06:34 50.1 °F 49.3 °F 29.74 in NW 4.0 mph 7.0 mph 97% 0.00 in
06:37 50.1 °F 49.3 °F 29.75 in WNW 3.0 mph 4.0 mph 97% 0.00 in
06:42 50.1 °F 49.3 °F 29.75 in WNW 2.0 mph 7.0 mph 97% 0.00 in
06:47 50.1 °F 49.3 °F 29.75 in NW 5.0 mph 5.0 mph 97% 0.00 in
06:52 50.1 °F 49.3 °F 29.75 in WNW 2.0 mph 6.0 mph 97% 0.00 in
06:54 50.1 °F 49.3 °F 29.75 in WNW 5.0 mph 6.0 mph 97% 0.00 in
06:58 50.1 °F 49.3 °F 29.75 in NW 4.0 mph 4.0 mph 97% 0.00 in
06:59 50.1 °F 49.3 °F 29.75 in WNW 4.0 mph 6.0 mph 97% 0.00 in
07:03 50.1 °F 49.3 °F 29.75 in WNW 3.0 mph 6.0 mph 97% 0.00 in
07:08 50.2 °F 49.7 °F 29.75 in West 6.0 mph 7.0 mph 98% 0.00 in
07:13 50.1 °F 49.6 °F 29.76 in NW 3.0 mph 8.0 mph 98% 0.00 in
07:18 50.1 °F 49.6 °F 29.76 in NW 11.0 mph 11.0 mph 98% 0.00 in
07:23 49.7 °F 48.6 °F 29.76 in WNW 13.0 mph 17.0 mph 96% 0.00 in
07:28 49.2 °F 48.1 °F 29.76 in WNW 6.0 mph 10.0 mph 96% 0.00 in
07:30 49.1 °F 48.3 °F 29.77 in NNW 9.0 mph 9.0 mph 97% 0.00 in
07:33 48.9 °F 48.1 °F 29.77 in West 10.0 mph 11.0 mph 97% 0.00 in
07:35 48.8 °F 48.0 °F 29.77 in WNW 8.0 mph 11.0 mph 97% 0.00 in
07:36 48.7 °F 47.9 °F 29.77 in WNW 9.0 mph 11.0 mph 97% 0.00 in
07:41 48.6 °F 47.8 °F 29.77 in WNW 9.0 mph 13.0 mph 97% 0.00 in
07:46 48.6 °F 47.5 °F 29.77 in NW 4.0 mph 8.0 mph 96% 0.00 in
07:51 48.8 °F 47.7 °F 29.77 in NW 6.0 mph 11.0 mph 96% 0.00 in
07:52 48.8 °F 47.7 °F 29.77 in West 5.0 mph 11.0 mph 96% 0.00 in
07:57 49.0 °F 47.9 °F 29.78 in NW 3.0 mph 10.0 mph 96% 0.00 in
07:58 49.0 °F 47.9 °F 29.78 in NW 9.0 mph 10.0 mph 96% 0.00 in
08:03 49.1 °F 48.0 °F 29.78 in NW 10.0 mph 10.0 mph 96% 0.00 in
08:08 49.1 °F 47.7 °F 29.78 in WNW 3.0 mph 8.0 mph 95% 0.00 in
08:13 49.5 °F 48.1 °F 29.78 in WNW 7.0 mph 10.0 mph 95% 0.00 in
08:18 50.1 °F 48.4 °F 29.79 in NW 7.0 mph 8.0 mph 94% 0.00 in
08:23 50.0 °F 47.8 °F 29.79 in NW 8.0 mph 9.0 mph 92% 0.00 in
08:28 49.8 °F 47.6 °F 29.79 in NW 8.0 mph 11.0 mph 92% 0.00 in
08:31 49.9 °F 48.0 °F 29.79 in NW 4.0 mph 8.0 mph 93% 0.00 in
08:34 49.9 °F 47.7 °F 29.79 in North 7.0 mph 12.0 mph 92% 0.00 in
08:36 49.9 °F 47.7 °F 29.79 in NNW 5.0 mph 14.0 mph 92% 0.00 in
08:39 50.0 °F 47.8 °F 29.79 in WNW 5.0 mph 12.0 mph 92% 0.00 in
08:44 50.0 °F 47.8 °F 29.79 in NW 9.0 mph 11.0 mph 92% 0.00 in
08:46 50.1 °F 47.9 °F 29.79 in NW 5.0 mph 12.0 mph 92% 0.00 in
08:50 49.9 °F 47.7 °F 29.79 in NW 8.0 mph 14.0 mph 92% 0.00 in
08:51 49.9 °F 47.7 °F 29.80 in NNW 6.0 mph 13.0 mph 92% 0.00 in
08:55 50.0 °F 48.1 °F 29.80 in NW 5.0 mph 10.0 mph 93% 0.00 in
08:56 49.9 °F 47.7 °F 29.80 in NW 9.0 mph 11.0 mph 92% 0.00 in
08:57 50.0 °F 47.5 °F 29.80 in WNW 6.0 mph 11.0 mph 91% 0.00 in
08:58 49.9 °F 47.7 °F 29.80 in WNW 9.0 mph 11.0 mph 92% 0.00 in
09:03 50.3 °F 48.1 °F 29.80 in West 4.0 mph 8.0 mph 92% 0.00 in
09:08 50.3 °F 47.5 °F 29.80 in NNW 5.0 mph 10.0 mph 90% 0.00 in
09:13 50.2 °F 46.8 °F 29.80 in WNW 8.0 mph 13.0 mph 88% 0.00 in
09:18 50.1 °F 47.0 °F 29.80 in NW 9.0 mph 10.0 mph 89% 0.00 in
09:23 50.5 °F 47.7 °F 29.80 in West 7.0 mph 11.0 mph 90% 0.00 in
09:28 50.9 °F 47.8 °F 29.80 in NW 6.0 mph 11.0 mph 89% 0.00 in
09:29 50.9 °F 47.2 °F 29.80 in NW 8.0 mph 11.0 mph 87% 0.00 in
09:33 50.9 °F 47.2 °F 29.80 in NW 8.0 mph 14.0 mph 87% 0.00 in
09:34 50.9 °F 47.5 °F 29.80 in NW 11.0 mph 14.0 mph 88% 0.00 in
09:35 50.9 °F 47.5 °F 29.80 in NW 8.0 mph 12.0 mph 88% 0.00 in
09:38 50.8 °F 47.4 °F 29.81 in NW 8.0 mph 13.0 mph 88% 0.00 in
09:41 50.9 °F 47.5 °F 29.81 in WNW 6.0 mph 8.0 mph 88% 0.00 in
09:46 50.8 °F 47.1 °F 29.81 in WNW 3.0 mph 9.0 mph 87% 0.00 in
09:51 51.0 °F 47.3 °F 29.81 in WNW 5.0 mph 9.0 mph 87% 0.00 in
09:52 51.0 °F 47.3 °F 29.81 in WNW 7.0 mph 9.0 mph 87% 0.00 in
09:53 51.2 °F 47.2 °F 29.81 in WNW 8.0 mph 13.0 mph 86% 0.00 in
09:57 51.4 °F 47.0 °F 29.81 in NW 7.0 mph 12.0 mph 85% 0.00 in
09:58 51.3 °F 47.3 °F 29.81 in WNW 5.0 mph 12.0 mph 86% 0.00 in
10:02 51.6 °F 47.6 °F 29.81 in NW 5.0 mph 9.0 mph 86% 0.00 in
10:07 51.8 °F 48.1 °F 29.82 in NNW 8.0 mph 8.0 mph 87% 0.00 in
10:12 51.1 °F 46.8 °F 29.82 in NNW 8.0 mph 13.0 mph 85% 0.00 in
10:17 50.8 °F 47.1 °F 29.82 in WNW 7.0 mph 12.0 mph 87% 0.00 in
10:22 50.9 °F 46.9 °F 29.82 in NW 7.0 mph 13.0 mph 86% 0.00 in
10:27 51.0 °F 46.7 °F 29.82 in NW 5.0 mph 11.0 mph 85% 0.00 in
10:28 51.0 °F 46.7 °F 29.82 in WNW 6.0 mph 11.0 mph 85% 0.00 in
10:33 51.2 °F 46.8 °F 29.82 in NW 8.0 mph 12.0 mph 85% 0.00 in
10:34 51.2 °F 46.5 °F 29.82 in West 5.0 mph 11.0 mph 84% 0.00 in
10:39 51.3 °F 46.6 °F 29.82 in NW 7.0 mph 13.0 mph 84% 0.00 in
10:40 51.3 °F 47.3 °F 29.82 in NNW 6.0 mph 13.0 mph 86% 0.00 in
10:45 51.5 °F 47.5 °F 29.82 in NW 4.0 mph 9.0 mph 86% 0.00 in
10:50 51.9 °F 47.2 °F 29.82 in WNW 9.0 mph 10.0 mph 84% 0.00 in
10:55 51.8 °F 47.4 °F 29.82 in North 6.0 mph 14.0 mph 85% 0.00 in
10:56 51.8 °F 47.4 °F 29.82 in NW 8.0 mph 14.0 mph 85% 0.00 in
11:00 52.1 °F 48.0 °F 29.82 in NNW 9.0 mph 9.0 mph 86% 0.00 in
11:05 52.0 °F 47.3 °F 29.82 in WNW 6.0 mph 10.0 mph 84% 0.00 in
11:10 52.1 °F 48.0 °F 29.82 in WNW 6.0 mph 9.0 mph 86% 0.00 in
11:15 52.2 °F 47.5 °F 29.82 in West 6.0 mph 8.0 mph 84% 0.00 in
11:16 52.2 °F 47.5 °F 29.82 in WSW 5.0 mph 8.0 mph 84% 0.00 in
11:21 52.3 °F 47.6 °F 29.83 in NW 5.0 mph 8.0 mph 84% 0.00 in
11:26 52.3 °F 47.9 °F 29.83 in NW 4.0 mph 8.0 mph 85% 0.00 in
11:27 52.3 °F 47.9 °F 29.83 in NW 7.0 mph 11.0 mph 85% 0.00 in
11:31 52.5 °F 48.1 °F 29.83 in NW 6.0 mph 12.0 mph 85% 0.00 in
11:32 52.5 °F 48.4 °F 29.83 in WNW 6.0 mph 11.0 mph 86% 0.00 in
11:36 53.1 °F 48.4 °F 29.82 in NW 10.0 mph 10.0 mph 84% 0.00 in
11:37 53.2 °F 49.1 °F 29.82 in NNW 9.0 mph 12.0 mph 86% 0.00 in
11:42 53.4 °F 48.4 °F 29.82 in WNW 9.0 mph 12.0 mph 83% 0.00 in
11:47 53.8 °F 48.8 °F 29.83 in NW 6.0 mph 14.0 mph 83% 0.00 in
11:53 54.1 °F 49.7 °F 29.83 in NNW 7.0 mph 9.0 mph 85% 0.00 in
11:58 53.7 °F 49.0 °F 29.83 in West 9.0 mph 10.0 mph 84% 0.00 in
12:03 53.3 °F 48.6 °F 29.83 in NNW 5.0 mph 8.0 mph 84% 0.00 in
12:04 53.3 °F 48.9 °F 29.83 in NW 5.0 mph 8.0 mph 85% 0.00 in
12:09 53.5 °F 49.1 °F 29.82 in NNW 7.0 mph 9.0 mph 85% 0.00 in
12:14 53.2 °F 47.9 °F 29.83 in WNW 5.0 mph 12.0 mph 82% 0.00 in
12:19 53.0 °F 48.6 °F 29.83 in NW 6.0 mph 10.0 mph 85% 0.00 in
12:24 52.8 °F 48.1 °F 29.83 in NNW 6.0 mph 10.0 mph 84% 0.00 in
12:29 53.0 °F 48.3 °F 29.83 in North 4.0 mph 8.0 mph 84% 0.00 in
12:34 53.4 °F 48.7 °F 29.83 in NNW 5.0 mph 11.0 mph 84% 0.00 in
12:35 53.4 °F 49.0 °F 29.83 in NW 6.0 mph 11.0 mph 85% 0.00 in
12:37 53.3 °F 49.2 °F 29.83 in WNW 7.0 mph 9.0 mph 86% 0.00 in
12:42 52.7 °F 48.6 °F 29.83 in WSW 5.0 mph 11.0 mph 86% 0.00 in
12:48 52.4 °F 48.3 °F 29.83 in WNW 6.0 mph 13.0 mph 86% 0.00 in
12:53 52.5 °F 48.8 °F 29.83 in WNW 8.0 mph 10.0 mph 87% 0.00 in
12:58 52.6 °F 49.2 °F 29.84 in NW 7.0 mph 11.0 mph 88% 0.00 in
13:03 52.7 °F 49.2 °F 29.84 in NNW 8.0 mph 10.0 mph 88% 0.00 in
13:08 52.6 °F 48.8 °F 29.84 in WNW 5.0 mph 7.0 mph 87% 0.00 in
13:09 52.6 °F 49.2 °F 29.84 in WNW 4.0 mph 7.0 mph 88% 0.00 in
13:14 52.3 °F 48.9 °F 29.84 in WNW 5.0 mph 9.0 mph 88% 0.00 in
13:19 51.9 °F 48.8 °F 29.84 in WNW 5.0 mph 12.0 mph 89% 0.00 in
13:24 51.6 °F 48.8 °F 29.84 in NW 4.0 mph 9.0 mph 90% 0.00 in
13:29 51.7 °F 49.2 °F 29.83 in WNW 6.0 mph 7.0 mph 91% 0.00 in
13:30 51.7 °F 49.2 °F 29.83 in NW 4.0 mph 7.0 mph 91% 0.00 in
13:32 51.9 °F 49.4 °F 29.83 in NNW 7.0 mph 7.0 mph 91% 0.00 in
13:35 52.1 °F 49.3 °F 29.83 in WNW 7.0 mph 9.0 mph 90% 0.00 in
13:36 52.1 °F 49.3 °F 29.83 in NW 8.0 mph 8.0 mph 90% 0.00 in
13:37 52.2 °F 49.7 °F 29.83 in NW 7.0 mph 8.0 mph 91% 0.00 in
13:41 52.2 °F 49.1 °F 29.83 in NW 5.0 mph 8.0 mph 89% 0.00 in
13:46 52.5 °F 49.7 °F 29.83 in WNW 8.0 mph 8.0 mph 90% 0.00 in
13:51 51.8 °F 49.5 °F 29.84 in WNW 6.0 mph 9.0 mph 92% 0.00 in
13:52 51.8 °F 49.5 °F 29.84 in WNW 4.0 mph 9.0 mph 92% 0.00 in
13:53 51.7 °F 49.8 °F 29.84 in WNW 7.0 mph 8.0 mph 93% 0.00 in
13:58 51.5 °F 49.5 °F 29.84 in WNW 2.0 mph 8.0 mph 93% 0.00 in
13:59 51.6 °F 49.9 °F 29.84 in West 5.0 mph 8.0 mph 94% 0.00 in
14:04 51.4 °F 49.5 °F 29.83 in WNW 4.0 mph 9.0 mph 93% 0.00 in
14:09 51.4 °F 49.7 °F 29.83 in NW 5.0 mph 6.0 mph 94% 0.00 in
14:14 51.6 °F 49.7 °F 29.83 in NW 4.0 mph 9.0 mph 93% 0.00 in
14:19 51.7 °F 49.8 °F 29.83 in WNW 5.0 mph 9.0 mph 93% 0.00 in
14:24 51.7 °F 49.8 °F 29.83 in NW 8.0 mph 8.0 mph 93% 0.00 in
14:29 51.6 °F 49.4 °F 29.83 in WNW 5.0 mph 7.0 mph 92% 0.00 in
14:30 51.6 °F 49.4 °F 29.83 in NW 6.0 mph 8.0 mph 92% 0.00 in
14:35 51.7 °F 49.5 °F 29.83 in WNW 6.0 mph 6.0 mph 92% 0.00 in
14:36 51.8 °F 49.5 °F 29.83 in WNW 6.0 mph 11.0 mph 92% 0.00 in
14:40 51.8 °F 49.5 °F 29.84 in NW 4.0 mph 10.0 mph 92% 0.00 in
14:45 52.3 °F 49.8 °F 29.83 in WNW 3.0 mph 8.0 mph 91% 0.00 in
14:50 52.6 °F 50.0 °F 29.83 in NW 4.0 mph 7.0 mph 91% 0.00 in
14:51 52.6 °F 50.0 °F 29.83 in WNW 6.0 mph 7.0 mph 91% 0.00 in
14:56 52.9 °F 50.3 °F 29.83 in WNW 3.0 mph 7.0 mph 91% 0.00 in
14:57 52.9 °F 50.3 °F 29.83 in West 3.0 mph 7.0 mph 91% 0.00 in
15:01 53.0 °F 50.2 °F 29.83 in WNW 2.0 mph 9.0 mph 90% 0.00 in
15:06 53.0 °F 50.2 °F 29.83 in West 7.0 mph 10.0 mph 90% 0.00 in
15:11 52.7 °F 50.5 °F 29.83 in WNW 3.0 mph 9.0 mph 92% 0.00 in
15:12 52.7 °F 50.5 °F 29.83 in NW 3.0 mph 7.0 mph 92% 0.00 in
15:17 52.5 °F 50.5 °F 29.84 in NW 4.0 mph 8.0 mph 93% 0.00 in
15:22 52.8 °F 51.4 °F 29.83 in WSW 2.0 mph 5.0 mph 95% 0.00 in
15:27 53.4 °F 52.0 °F 29.83 in NNW 5.0 mph 8.0 mph 95% 0.00 in
15:32 53.9 °F 51.6 °F 29.83 in NW 5.0 mph 8.0 mph 92% 0.00 in
15:37 54.6 °F 51.4 °F 29.83 in NW 8.0 mph 11.0 mph 89% 0.00 in
15:42 54.5 °F 51.0 °F 29.83 in NW 4.0 mph 10.0 mph 88% 0.00 in
15:43 54.5 °F 51.0 °F 29.83 in NNW 4.0 mph 9.0 mph 88% 0.00 in
15:48 54.7 °F 51.2 °F 29.83 in NW 4.0 mph 11.0 mph 88% 0.00 in
15:53 55.2 °F 51.4 °F 29.83 in West 7.0 mph 9.0 mph 87% 0.00 in
15:54 55.3 °F 51.5 °F 29.83 in NW 7.0 mph 9.0 mph 87% 0.00 in
15:59 55.3 °F 50.9 °F 29.83 in NNW 8.0 mph 9.0 mph 85% 0.00 in
16:05 55.1 °F 51.0 °F 29.83 in NW 7.0 mph 9.0 mph 86% 0.00 in
16:10 54.3 °F 50.5 °F 29.83 in NNW 6.0 mph 15.0 mph 87% 0.00 in
16:15 54.0 °F 50.5 °F 29.83 in NNE 5.0 mph 10.0 mph 88% 0.00 in
16:20 54.2 °F 51.0 °F 29.83 in NW 6.0 mph 7.0 mph 89% 0.00 in
16:21 54.3 °F 50.8 °F 29.83 in WNW 5.0 mph 8.0 mph 88% 0.00 in
16:25 54.7 °F 51.2 °F 29.83 in NW 2.0 mph 8.0 mph 88% 0.00 in
16:26 55.1 °F 51.9 °F 29.83 in WNW 6.0 mph 8.0 mph 89% 0.00 in
16:28 55.1 °F 50.7 °F 29.83 in WNW 4.0 mph 7.0 mph 85% 0.00 in
16:32 54.9 °F 50.5 °F 29.83 in WNW 5.0 mph 8.0 mph 85% 0.00 in
16:34 54.8 °F 50.4 °F 29.83 in NW 4.0 mph 11.0 mph 85% 0.00 in
16:37 54.5 °F 50.4 °F 29.83 in NW 5.0 mph 10.0 mph 86% 0.00 in
16:42 54.2 °F 50.1 °F 29.83 in NW 11.0 mph 11.0 mph 86% 0.00 in
16:47 53.9 °F 49.5 °F 29.83 in NW 12.0 mph 14.0 mph 85% 0.00 in
16:52 53.8 °F 49.7 °F 29.84 in NNW 6.0 mph 12.0 mph 86% 0.00 in
16:53 53.8 °F 49.7 °F 29.84 in NW 4.0 mph 11.0 mph 86% 0.00 in
16:56 53.8 °F 49.4 °F 29.83 in NNW 8.0 mph 14.0 mph 85% 0.00 in
16:58 53.7 °F 49.6 °F 29.84 in NW 8.0 mph 14.0 mph 86% 0.00 in
17:02 53.6 °F 49.5 °F 29.84 in NNW 7.0 mph 13.0 mph 86% 0.00 in
17:07 53.4 °F 49.6 °F 29.84 in NNW 6.0 mph 12.0 mph 87% 0.00 in
17:12 53.3 °F 50.2 °F 29.84 in NNW 4.0 mph 7.0 mph 89% 0.00 in
17:17 53.2 °F 49.7 °F 29.84 in NNW 8.0 mph 13.0 mph 88% 0.00 in
17:22 53.3 °F 49.5 °F 29.84 in WNW 9.0 mph 10.0 mph 87% 0.00 in
17:27 53.6 °F 49.8 °F 29.84 in WNW 3.0 mph 12.0 mph 87% 0.00 in
17:28 53.7 °F 49.9 °F 29.84 in NW 3.0 mph 12.0 mph 87% 0.00 in
17:33 54.0 °F 49.9 °F 29.84 in WNW 6.0 mph 12.0 mph 86% 0.00 in
17:38 54.0 °F 49.9 °F 29.84 in NW 9.0 mph 12.0 mph 86% 0.00 in
17:43 53.7 °F 49.9 °F 29.84 in NNW 16.0 mph 16.0 mph 87% 0.00 in
17:49 53.2 °F 49.4 °F 29.85 in NNW 10.0 mph 15.0 mph 87% 0.00 in
17:53 52.7 °F 49.2 °F 29.85 in NW 11.0 mph 13.0 mph 88% 0.00 in
17:54 52.7 °F 49.2 °F 29.85 in NW 11.0 mph 13.0 mph 88% 0.00 in
17:59 52.2 °F 49.1 °F 29.85 in NW 10.0 mph 14.0 mph 89% 0.00 in
18:04 51.8 °F 49.3 °F 29.85 in WNW 8.0 mph 19.0 mph 91% 0.00 in
18:09 51.4 °F 49.2 °F 29.85 in NNW 5.0 mph 12.0 mph 92% 0.00 in
18:14 51.3 °F 49.3 °F 29.85 in NNW 7.0 mph 11.0 mph 93% 0.00 in
18:19 51.2 °F 49.5 °F 29.85 in NNW 6.0 mph 10.0 mph 94% 0.00 in
18:24 51.2 °F 49.5 °F 29.85 in NNW 6.0 mph 12.0 mph 94% 0.00 in
18:29 51.3 °F 49.6 °F 29.85 in NNW 3.0 mph 7.0 mph 94% 0.00 in
18:31 51.4 °F 49.7 °F 29.85 in NW 3.0 mph 6.0 mph 94% 0.00 in
18:34 51.5 °F 49.5 °F 29.85 in NNW 3.0 mph 6.0 mph 93% 0.00 in
18:35 51.5 °F 49.5 °F 29.85 in NW 3.0 mph 6.0 mph 93% 0.00 in
18:37 51.6 °F 49.7 °F 29.85 in NW 2.0 mph 4.0 mph 93% 0.00 in
18:40 51.8 °F 49.8 °F 29.85 in NW 3.0 mph 6.0 mph 93% 0.00 in
18:45 52.1 °F 49.8 °F 29.85 in NW 6.0 mph 9.0 mph 92% 0.00 in
18:50 52.2 °F 49.7 °F 29.85 in NNW 7.0 mph 10.0 mph 91% 0.00 in
18:51 52.2 °F 49.7 °F 29.85 in NNW 4.0 mph 10.0 mph 91% 0.00 in
18:56 52.3 °F 49.2 °F 29.85 in NNW 7.0 mph 13.0 mph 89% 0.00 in
18:58 52.4 °F 49.3 °F 29.85 in NW 5.0 mph 8.0 mph 89% 0.00 in
19:02 52.5 °F 49.7 °F 29.85 in NNW 5.0 mph 9.0 mph 90% 0.00 in
19:07 52.6 °F 49.5 °F 29.85 in NNW 6.0 mph 8.0 mph 89% 0.00 in
19:12 52.8 °F 49.7 °F 29.85 in North 6.0 mph 9.0 mph 89% 0.00 in
19:17 52.9 °F 49.5 °F 29.85 in NNW 4.0 mph 7.0 mph 88% 0.00 in
19:22 52.9 °F 49.5 °F 29.85 in North 7.0 mph 9.0 mph 88% 0.00 in
19:28 53.0 °F 49.2 °F 29.85 in NNW 4.0 mph 8.0 mph 87% 0.00 in
19:32 53.1 °F 49.3 °F 29.85 in NNW 6.0 mph 7.0 mph 87% 0.00 in
19:33 53.1 °F 49.3 °F 29.85 in NW 3.0 mph 7.0 mph 87% 0.00 in
19:34 53.1 °F 49.3 °F 29.85 in NNW 3.0 mph 7.0 mph 87% 0.00 in
19:35 53.1 °F 49.3 °F 29.85 in North 3.0 mph 7.0 mph 87% 0.00 in
19:37 53.1 °F 49.3 °F 29.85 in NNW 7.0 mph 9.0 mph 87% 0.00 in
19:39 53.1 °F 49.3 °F 29.85 in NNW 3.0 mph 9.0 mph 87% 0.00 in
19:44 53.1 °F 49.3 °F 29.85 in NNW 3.0 mph 6.0 mph 87% 0.00 in
19:49 53.0 °F 49.2 °F 29.85 in NNW 4.0 mph 8.0 mph 87% 0.00 in
19:55 53.0 °F 49.5 °F 29.85 in WNW 3.0 mph 4.0 mph 88% 0.00 in
19:57 53.0 °F 49.5 °F 29.85 in NNW 4.0 mph 5.0 mph 88% 0.00 in
20:01 52.9 °F 49.5 °F 29.85 in NW 2.0 mph 4.0 mph 88% 0.00 in
20:06 52.9 °F 49.8 °F 29.86 in NW 2.0 mph 3.0 mph 89% 0.00 in
20:13 52.9 °F 49.8 °F 29.86 in NW 3.0 mph 4.0 mph 89% 0.00 in
20:18 52.8 °F 49.7 °F 29.86 in NW 2.0 mph 6.0 mph 89% 0.00 in
20:23 52.9 °F 49.8 °F 29.86 in NNW 3.0 mph 4.0 mph 89% 0.00 in
20:28 52.8 °F 49.7 °F 29.86 in NW 3.0 mph 4.0 mph 89% 0.00 in
20:33 52.8 °F 50.0 °F 29.86 in WNW 4.0 mph 4.0 mph 90% 0.00 in
20:34 52.8 °F 49.7 °F 29.86 in NW 2.0 mph 5.0 mph 89% 0.00 in
20:35 52.8 °F 49.7 °F 29.86 in NW 2.0 mph 5.0 mph 89% 0.00 in
20:40 52.7 °F 49.5 °F 29.86 in NNW 3.0 mph 4.0 mph 89% 0.00 in
20:45 52.7 °F 49.8 °F 29.86 in NW 2.0 mph 4.0 mph 90% 0.00 in
20:50 52.7 °F 49.8 °F 29.86 in NW 2.0 mph 4.0 mph 90% 0.00 in
20:51 52.7 °F 49.8 °F 29.86 in NW 3.0 mph 3.0 mph 90% 0.00 in
20:55 52.7 °F 49.8 °F 29.86 in WNW 4.0 mph 4.0 mph 90% 0.00 in
20:56 52.7 °F 49.8 °F 29.86 in WNW 2.0 mph 4.0 mph 90% 0.00 in
20:58 52.7 °F 49.8 °F 29.86 in WNW 2.0 mph 4.0 mph 90% 0.00 in
21:03 52.6 °F 49.8 °F 29.86 in NW 2.0 mph 4.0 mph 90% 0.00 in
21:08 52.6 °F 49.8 °F 29.86 in WNW 4.0 mph 5.0 mph 90% 0.00 in
21:13 52.6 °F 50.0 °F 29.87 in NW 2.0 mph 4.0 mph 91% 0.00 in
21:18 52.6 °F 50.0 °F 29.86 in NW 2.0 mph 4.0 mph 91% 0.00 in
21:25 52.7 °F 50.2 °F 29.87 in North 4.0 mph 4.0 mph 91% 0.00 in
21:26 52.6 °F 50.0 °F 29.87 in NNW 3.0 mph 4.0 mph 91% 0.00 in
21:30 52.6 °F 50.0 °F 29.87 in NNW 2.0 mph 4.0 mph 91% 0.00 in
21:32 52.6 °F 50.0 °F 29.87 in NNW 2.0 mph 4.0 mph 91% 0.00 in
21:35 52.6 °F 50.0 °F 29.86 in NW 4.0 mph 4.0 mph 91% 0.00 in
21:38 52.6 °F 50.0 °F 29.87 in NNW 3.0 mph 4.0 mph 91% 0.00 in
21:41 52.6 °F 50.0 °F 29.87 in WNW 4.0 mph 4.0 mph 91% 0.00 in
21:43 52.6 °F 50.0 °F 29.87 in NNW 2.0 mph 4.0 mph 91% 0.00 in
21:48 52.7 °F 49.8 °F 29.87 in NW 3.0 mph 5.0 mph 90% 0.00 in
21:53 52.7 °F 49.8 °F 29.87 in NW 2.0 mph 5.0 mph 90% 0.00 in
21:54 52.7 °F 49.8 °F 29.87 in NW 2.0 mph 5.0 mph 90% 0.00 in
21:58 52.7 °F 49.8 °F 29.87 in NW 6.0 mph 7.0 mph 90% 0.00 in
21:59 52.7 °F 49.8 °F 29.87 in NW 4.0 mph 7.0 mph 90% 0.00 in
22:04 52.8 °F 49.7 °F 29.87 in NNW 3.0 mph 6.0 mph 89% 0.00 in
22:09 52.8 °F 49.7 °F 29.87 in NW 3.0 mph 5.0 mph 89% 0.00 in
22:14 52.8 °F 49.7 °F 29.88 in NW 2.0 mph 6.0 mph 89% 0.00 in
22:19 52.8 °F 49.3 °F 29.87 in NW 4.0 mph 5.0 mph 88% 0.00 in
22:24 52.7 °F 49.2 °F 29.88 in NW 5.0 mph 6.0 mph 88% 0.00 in
22:29 52.7 °F 49.2 °F 29.88 in NW 3.0 mph 6.0 mph 88% 0.00 in
22:34 52.6 °F 49.2 °F 29.88 in NNW 3.0 mph 6.0 mph 88% 0.00 in
22:35 52.6 °F 49.2 °F 29.87 in NNW 6.0 mph 6.0 mph 88% 0.00 in
22:39 52.6 °F 48.8 °F 29.87 in NW 3.0 mph 7.0 mph 87% 0.00 in
22:44 52.6 °F 48.8 °F 29.88 in WNW 3.0 mph 5.0 mph 87% 0.00 in
22:45 52.5 °F 48.8 °F 29.88 in WNW 3.0 mph 5.0 mph 87% 0.00 in
22:50 52.5 °F 48.8 °F 29.88 in NW 4.0 mph 7.0 mph 87% 0.00 in
22:55 52.5 °F 48.8 °F 29.88 in NW 2.0 mph 3.0 mph 87% 0.00 in
22:57 52.5 °F 48.8 °F 29.88 in WNW 3.0 mph 4.0 mph 87% 0.00 in
23:00 52.5 °F 48.8 °F 29.88 in NW 2.0 mph 5.0 mph 87% 0.00 in
23:05 52.4 °F 48.7 °F 29.88 in NW 2.0 mph 3.0 mph 87% 0.00 in
23:10 52.4 °F 48.3 °F 29.88 in NW 3.0 mph 5.0 mph 86% 0.00 in
23:15 52.4 °F 48.3 °F 29.88 in NW 3.0 mph 4.0 mph 86% 0.00 in
23:20 52.4 °F 48.3 °F 29.88 in NW 2.0 mph 5.0 mph 86% 0.00 in
23:25 52.4 °F 48.3 °F 29.88 in WNW 2.0 mph 4.0 mph 86% 0.00 in
23:28 52.3 °F 48.2 °F 29.88 in WNW 2.0 mph 3.0 mph 86% 0.00 in
23:30 52.3 °F 48.2 °F 29.88 in WNW 3.0 mph 4.0 mph 86% 0.00 in
23:31 52.3 °F 48.2 °F 29.88 in NW 3.0 mph 4.0 mph 86% 0.00 in
23:34 52.2 °F 48.2 °F 29.88 in NW 3.0 mph 5.0 mph 86% 0.00 in
23:36 52.2 °F 48.2 °F 29.88 in WNW 2.0 mph 5.0 mph 86% 0.00 in
23:41 52.1 °F 48.4 °F 29.87 in WNW 2.0 mph 3.0 mph 87% 0.00 in
23:46 52.0 °F 48.3 °F 29.87 in NW 3.0 mph 4.0 mph 87% 0.00 in
23:51 51.9 °F 48.2 °F 29.87 in NW 3.0 mph 4.0 mph 87% 0.00 in
23:52 51.9 °F 48.2 °F 29.87 in NW 3.0 mph 4.0 mph 87% 0.00 in
23:57 51.8 °F 48.1 °F 29.87 in WNW 3.0 mph 3.0 mph 87% 0.00 in
23:58 51.8 °F 48.1 °F 29.87 in NW 2.0 mph 4.0 mph 87% 0.00 in
Compliments of Weather Underground